Location: Barrio Pajares
(40.5500°N, 4.1667°W)
Time: 20:37:00
(UTC+00:00)

Atlas Centaur 2 - Pass Details

Date: 18 April 2024
Orbit: 457 x 1258 km, 30.4° (Epoch: 17 May)

Event Time Altitude Azimuth Distance (km) Brightness Sun altitude
Rises 19:14:31 0° 224° (SW) 3,567 5.8 -3.6°
Reaches altitude 10° 19:18:14 10° 206° (SSW) 2,440 4.7 -4.2°
Maximum altitude 19:21:50 17° 167° (SSE) 1,815 3.7 -4.9°
Drops below altitude 10° 19:25:01 10° 127° (SE) 2,094 3.7 -5.5°
Enters shadow 19:26:02 - 118° (ESE) 2,332 3.8 -5.6°
